This demonstration page uses our WeatherBlox Daily Observations layout. Learn more.

Hourly Observations for August 15, 2019

Temp ( °F °C ) Dew Point ( °F °C ) Humidity (%) Winds ( mph kmh ) Pressure ( in mb ) Visibility ( mi km ) Precip ( " mm )
12:15 am 00:15 Clear 59 15 57 14 94 94 Calm 30.09 1019 10 16.09344 0 0
12:35 am 00:35 Clear 59 14.9 57 14 94 94 Calm 30.09 1019 10 16.09344 0 0
12:55 am 00:55 Partly Cloudy 59 14.8 57 13.7 93 93 Calm 30.09 1019 10 16.09344 0 0
1:15 am 01:15 Clear 57 14 56 13.5 97 97 Calm 30.12 1020 10 16.09344 0 0
1:35 am 01:35 Clear 57 13.9 56 13.5 97 97 Calm 30.12 1020 10 16.09344 0 0
1:55 am 01:55 Clear 57 13.9 56 13.6 98 98 ESE 3 6 30.09 1019 10 16.09344 0 0
2:15 am 02:15 Clear 57 13.8 56 13.4 97 97 S 3 6 30.09 1019 10 16.09344 0 0
2:35 am 02:35 Clear 56 13.3 56 13.2 99 99 Calm 30.09 1019 10 16.09344 0 0
2:55 am 02:55 Clear 57 13.8 57 13.7 99 99 SSE 5 7 30.09 1019 10 16.09344 0 0
3:15 am 03:15 Clear 57 13.8 56 13.6 99 99 SE 6 9 30.09 1019 10 16.09344 0 0
3:35 am 03:35 Clear 57 13.7 56 13.6 99 99 SSE 3 6 30.06 1018 10 16.09344 0 0
3:55 am 03:55 Clear 57 14 57 13.9 99 99 Calm 30.03 1017 10 16.09344 0 0
4:15 am 04:15 Clear 59 14.8 57 14 95 95 E 3 6 30.03 1017 10 16.09344 0 0
4:35 am 04:35 Clear 58 14.5 58 14.3 99 99 E 5 7 30.03 1017 10 16.09344 0 0
4:55 am 04:55 Partly Cloudy 58 14.5 58 14.4 99 99 S 9 15 30 1016 10 16.09344 0 0
5:15 am 05:15 Partly Cloudy 58 14.7 58 14.2 97 97 ESE 6 9 30 1016 10 16.09344 0 0
5:35 am 05:35 Clear with Nearby Thunderstorms 59 15 58 14.4 96 96 NNE 7 11 30.03 1017 10 16.09344 0 0
5:55 am 05:55 Clear 58 14.7 58 14.4 98 98 E 7 11 30 1016 10 16.09344 0 0
6:15 am 06:15 Partly Cloudy 59 15 58 14.6 97 97 E 8 13 30 1016 10 16.09344 0 0
6:35 am 06:35 Partly Cloudy with Light Rain 59 15.2 58 14.7 97 97 E 9 15 30 1016 10 16.09344 0 0
6:55 am 06:55 Partly Cloudy with Light Rain 60 15.6 59 14.8 95 95 ESE 13 20 30 1016 10 16.09344 0.01 0.254
7:15 am 07:15 Partly Cloudy 60 15.6 59 15 96 96 SE 14 22 29.97 1015 10 16.09344 0 0
7:35 am 07:35 Cloudy with Nearby Thunderstorms 60 15.7 59 15 96 96 ESE 8 13 30 1016 10 16.09344 0 0
7:55 am 07:55 Cloudy with Nearby Thunderstorms 61 15.9 59 15.2 96 96 NE 16 26 30 1016 10 16.09344 0 0
8:15 am 08:15 Cloudy with Thunderstorms 63 17 61 15.9 93 93 NE 6 9 30.03 1017 10 16.09344 0 0
8:35 am 08:35 Cloudy with Heavy Thunderstorms 60 15.8 60 15.5 98 98 NNE 12 19 30.06 1018 1 1.609344 0.39 9.906
8:55 am 08:55 Cloudy with Light Thunderstorms 60 15.3 59 15.1 99 99 NNE 12 19 30.06 1018 7 11.265408 0.45 11.43
9:15 am 09:15 Cloudy with Nearby Thunderstorms 59 15.1 59 15 99 99 ENE 13 20 30.06 1018 4 6.437376 0.01 0.254
9:35 am 09:35 Cloudy 59 15.1 59 15 99 99 ENE 13 20 30.03 1017 10 16.09344 0.01 0.254
9:55 am 09:55 Cloudy with Thunderstorms 59 15.2 59 15 99 99 E 10 17 30.03 1017 10 16.09344 0.01 0.254
10:15 am 10:15 Cloudy 59 15.2 59 14.9 98 98 E 12 19 30 1016 10 16.09344 0 0
10:35 am 10:35 Cloudy 60 15.5 59 15 97 97 E 15 24 30 1016 10 16.09344 0 0
10:55 am 10:55 Partly Cloudy 62 16.6 60 15.6 94 94 ESE 14 22 30 1016 10 16.09344 0 0
11:15 am 11:15 Partly Cloudy 64 17.6 61 16 90 90 ESE 16 26 29.97 1015 10 16.09344 0 0
11:35 am 11:35 Partly Cloudy 65 18.2 61 16.1 88 88 ESE 14 22 29.97 1015 10 16.09344 0 0
11:55 am 11:55 Mostly Cloudy 66 18.9 61 16.2 84 84 SE 16 26 29.94 1014 10 16.09344 0 0
12:15 pm 12:15 Partly Cloudy 68 20 62 16.9 82 82 SE 18 30 29.88 1012 10 16.09344 0 0
12:35 pm 12:35 Partly Cloudy 70 21.3 64 17.8 81 81 SE 16 26 29.88 1012 10 16.09344 0 0
12:55 pm 12:55 Mostly Cloudy 71 21.5 65 18.3 82 82 SSE 13 20 29.88 1012 10 16.09344 0 0
1:15 pm 13:15 Cloudy 72 22.1 66 18.7 81 81 SSE 13 20 29.88 1012 10 16.09344 0 0
1:35 pm 13:35 Mostly Cloudy 74 23.2 67 19.3 79 79 SSW 12 19 29.91 1013 10 16.09344 0 0
1:55 pm 13:55 Cloudy 74 23.4 66 19.1 77 77 S 6 9 29.88 1012 10 16.09344 0 0
2:15 pm 14:15 Cloudy 74 23.2 66 19.1 78 78 Calm 29.91 1013 10 16.09344 0 0
2:35 pm 14:35 Cloudy 74 23.5 67 19.2 77 77 Calm 29.88 1012 10 16.09344 0 0
2:55 pm 14:55 Cloudy 75 23.7 67 19.3 76 76 W 7 11 29.88 1012 10 16.09344 0 0
3:15 pm 15:15 Cloudy 76 24.7 67 19.5 73 73 W 5 7 29.88 1012 10 16.09344 0 0
3:35 pm 15:35 Mostly Cloudy 75 23.8 66 19.1 75 75 NW 5 7 29.85 1011 10 16.09344 0 0
3:55 pm 15:55 Mostly Cloudy 77 24.9 67 19.7 73 73 NW 3 6 29.85 1011 10 16.09344 0 0
4:15 pm 16:15 Mostly Cloudy 78 25.3 67 19.7 71 71 NNE 3 6 29.85 1011 10 16.09344 0 0
4:35 pm 16:35 Partly Cloudy 76 24.2 67 19.4 75 75 N 5 7 29.85 1011 10 16.09344 0 0
4:55 pm 16:55 Partly Cloudy 77 25.2 67 19.4 70 70 Calm 29.85 1011 10 16.09344 0 0
5:15 pm 17:15 Partly Cloudy 77 25.2 66 19.1 69 69 NNE 6 9 29.85 1011 10 16.09344 0 0
5:35 pm 17:35 Sunny 78 25.3 66 18.7 67 67 N 6 9 29.85 1011 10 16.09344 0 0
5:55 pm 17:55 Sunny 78 25.3 67 19.2 69 69 N 6 9 29.85 1011 10 16.09344 0 0
6:15 pm 18:15 Sunny 78 25.4 66 19 68 68 NNE 6 9 29.85 1011 10 16.09344 0 0
6:35 pm 18:35 Sunny 77 25 66 18.9 69 69 NNE 6 9 29.85 1011 7 11.265408 0 0
6:55 pm 18:55 Sunny 75 24 67 19.2 75 75 NE 6 9 29.85 1011 10 16.09344 0 0
7:15 pm 19:15 Sunny 74 23.5 67 19.3 77 77 ENE 7 11 29.83 1010 10 16.09344 0 0
7:35 pm 19:35 Sunny 73 22.9 67 19.3 80 80 ENE 5 7 29.83 1010 10 16.09344 0 0
7:55 pm 19:55 Sunny 72 22 68 19.8 87 87 Calm 29.88 1012 10 16.09344 0 0
8:15 pm 20:15 Sunny 71 21.5 68 19.8 90 90 E 3 6 29.88 1012 10 16.09344 0 0
8:35 pm 20:35 Sunny 71 21.6 66 19 85 85 Calm 29.88 1012 10 16.09344 0 0
8:55 pm 20:55 Clear 69 20.6 66 18.7 89 89 ESE 6 9 29.85 1011 10 16.09344 0 0
9:15 pm 21:15 Clear 70 21.1 65 18.5 85 85 Calm 29.88 1012 10 16.09344 0 0
9:35 pm 21:35 Clear 68 20 65 18.5 91 91 ENE 5 7 29.88 1012 10 16.09344 0 0
9:55 pm 21:55 Clear 67 19.5 65 18.5 94 94 ENE 3 6 29.91 1013 10 16.09344 0 0
10:15 pm 22:15 Clear 66 19 64 18 94 94 Calm 29.91 1013 10 16.09344 0 0
10:35 pm 22:35 Clear 65 18.4 64 17.9 97 97 Calm 29.91 1013 10 16.09344 0 0
10:55 pm 22:55 Clear 64 17.9 64 17.6 98 98 Calm 29.91 1013 10 16.09344 0 0
11:15 pm 23:15 Clear 64 17.7 64 17.5 99 99 Calm 29.91 1013 10 16.09344 0 0
11:35 pm 23:35 Clear 63 17.1 63 17 99 99 N 3 6 29.91 1013 10 16.09344 0 0
11:55 pm 23:55 Clear 63 17.3 63 17.3 100 100 Calm 29.91 1013 10 16.09344 0 0

Powered by AerisWeather